Location: Usti nad Labem
(50.6667°N, 14.0333°E)
Time: 11:53:08
(UTC+01:00)

ISS - Visible Passes

Search period start: 20 January 2018 00:00
Search period end: 30 January 2018 00:00
Orbit: 402 x 407 km, 51.6° (Epoch: 20 January)

Date Brightness Start Highest point End Pass type
(mag) Time Alt. Az. Time Alt. Az. Time Alt. Az.
26 Jan -1.7 18:54:48 10° SSW 18:56:12 18° S 18:56:12 18° S visible
27 Jan -1.8 18:03:21 10° S 18:05:17 15° SE 18:06:11 14° ESE visible
27 Jan -1.0 19:38:02 10° WSW 19:38:51 16° SW 19:38:51 16° SW visible
28 Jan -3.1 18:45:51 10° SW 18:48:45 40° SSE 18:48:45 40° SSE visible
29 Jan -2.5 17:53:51 10° SSW 17:56:39 27° SSE 17:58:36 15° E visible
29 Jan -1.8 19:29:36 10° WSW 19:31:15 28° WSW 19:31:15 28° WSW visible
